Location: Observatoire
(46.1952°N, 5.3391°E)
Time: 07:17:32
(UTC+02:00)

JY1SAT - Visible Passes

Search period start: 16 April 2024 00:00
Search period end: 26 April 2024 00:00
Orbit: 541 x 557 km, 97.5° (Epoch: 15 April)

Date Brightness Start Highest point End Pass type
(mag) Time Alt. Az. Time Alt. Az. Time Alt. Az.
16 Apr ? 21:26:34 13° E 21:28:29 17° ENE 21:31:06 10° NNE visible
16 Apr ? 23:02:15 41° SW 23:02:53 45° W 23:06:42 10° NNW visible
17 Apr ? 21:21:50 11° E 21:23:55 16° ENE 21:26:18 10° NNE visible
17 Apr ? 22:57:31 44° SW 22:58:15 51° W 23:02:08 10° NNW visible
18 Apr ? 21:17:15 10° E 21:19:21 14° ENE 21:21:28 10° NNE visible
18 Apr ? 22:52:45 46° SSW 22:53:37 58° W 22:57:32 10° NNW visible
19 Apr ? 21:12:59 10° E 21:14:46 13° ENE 21:16:32 10° NE visible
19 Apr ? 22:47:59 46° SSW 22:48:58 66° W 22:52:54 10° NNW visible
20 Apr ? 21:08:49 10° E 21:10:08 11° ENE 21:11:28 10° NE visible
20 Apr ? 22:43:10 45° S 22:44:17 74° WSW 22:48:14 10° NNW visible
21 Apr ? 21:04:56 10° ENE 21:05:31 10° ENE 21:06:05 10° NE visible
21 Apr ? 22:38:21 43° S 22:39:35 84° WSW 22:43:33 10° NNW visible
22 Apr ? 22:33:31 40° SSE 22:34:53 86° ENE 22:38:51 10° NNW visible
23 Apr ? 22:28:38 36° SSE 22:30:09 76° ENE 22:34:06 10° N visible
24 Apr ? 22:23:46 33° SSE 22:25:25 67° ENE 22:29:20 10° N visible
24 Apr ? 23:59:31 10° WSW 00:00:34 11° W 00:01:37 10° WNW visible
25 Apr ? 22:18:52 29° SE 22:20:40 59° ENE 22:24:31 10° N visible
25 Apr ? 23:54:32 11° WSW 23:55:44 12° W 23:57:24 10° WNW visible
